CW2551 Weather Reports


Display with metric or nautical units.
time (UTC)temp
F
wind
direction
speed
MPH
gust
MPH
rain 1hr
in
rain 24hr
in
rain mn
in
humidity
%
barometer
mb
20260509000606 80 4 6.0 10.0 0.00 0.00 0.00 29 1015.9
20260509000023 80 243 1.0 8.0 0.00 0.00 0.00 30 1015.9
20260508235604 80 243 1.0 8.0 0.00 0.00 0.00 30 1015.9
20260508235104 81 15 2.0 9.0 0.00 0.00 0.00 28 1016.1
20260508235022 81 347 3.0 9.0 0.00 0.00 0.00 27 1016.1
20260508234605 81 347 3.0 9.0 0.00 0.00 0.00 27 1016.1
20260508234104 81 2 2.0 8.0 0.00 0.00 0.00 29 1016.1
20260508234022 81 272 0.0 7.0 0.00 0.00 0.00 27 1016.1
20260508233605 81 272 0.0 7.0 0.00 0.00 0.00 27 1016.1
20260508233104 81 349 1.0 8.0 0.00 0.00 0.00 28 1016.1
20260508233022 81 30 2.0 8.0 0.00 0.00 0.00 27 1016.2
20260508232606 81 30 2.0 8.0 0.00 0.00 0.00 27 1016.2
20260508232104 81 234 2.0 8.0 0.00 0.00 0.00 28 1016.2
20260508232021 81 341 1.0 6.0 0.00 0.00 0.00 27 1016.2
20260508231604 81 341 1.0 6.0 0.00 0.00 0.00 27 1016.2
20260508231104 80 344 4.0 10.0 0.00 0.00 0.00 25 1016.2
20260508231021 80 328 3.0 8.0 0.00 0.00 0.00 27 1016.3
20260508230605 80 328 3.0 8.0 0.00 0.00 0.00 27 1016.3
20260508230104 80 345 1.0 3.0 0.00 0.00 0.00 27 1016.3
20260508230024 80 5 2.0 6.0 0.00 0.00 0.00 26 1016.4
20260508225604 80 5 2.0 6.0 0.00 0.00 0.00 26 1016.4
20260508225021 80 325 0.0 5.0 0.00 0.00 0.00 28 1016.4
20260508224604 80 325 0.0 5.0 0.00 0.00 0.00 28 1016.4
20260508224106 81 8 2.0 6.0 0.00 0.00 0.00 27 1016.5
20260508224021 80 304 0.0 5.0 0.00 0.00 0.00 28 1016.5
20260508223604 80 304 0.0 5.0 0.00 0.00 0.00 28 1016.5
20260508223104 79 354 1.0 9.0 0.00 0.00 0.00 30 1016.6
20260508223024 80 250 2.0 9.0 0.00 0.00 0.00 28 1016.7
20260508222605 80 250 2.0 9.0 0.00 0.00 0.00 28 1016.7
20260508222104 81 246 1.0 8.0 0.00 0.00 0.00 29 1016.6
20260508222021 81 346 3.0 9.0 0.00 0.00 0.00 31 1016.8
20260508221607 81 346 3.0 9.0 0.00 0.00 0.00 31 1016.8
20260508221104 80 348 4.0 9.0 0.00 0.00 0.00 28 1016.7
20260508221022 80 51 1.0 8.0 0.00 0.00 0.00 30 1016.7
20260508220604 80 51 1.0 8.0 0.00 0.00 0.00 30 1016.7
20260508220104 80 28 1.0 9.0 0.00 0.00 0.00 30 1016.9
20260508215604 80 351 1.0 5.0 0.00 0.00 0.00 30 1016.9
20260508215104 80 13 1.0 12.0 0.00 0.00 0.00 30 1016.9
20260508215023 80 323 1.0 6.0 0.00 0.00 0.00 29 1017.0
20260508214604 80 323 1.0 6.0 0.00 0.00 0.00 29 1017.0
20260508214104 80 33 1.0 3.0 0.00 0.00 0.00 30 1017.0
20260508214022 80 347 2.0 8.0 0.00 0.00 0.00 31 1017.1
20260508213104 79 348 2.0 8.0 0.00 0.00 0.00 34 1017.0
20260508213026 79 339 1.0 5.0 0.00 0.00 0.00 35 1017.2
20260508212604 79 339 1.0 5.0 0.00 0.00 0.00 35 1017.2
20260508212104 78 121 0.0 5.0 0.00 0.00 0.00 30 1017.1
20260508212020 79 9 0.0 8.0 0.00 0.00 0.00 34 1017.2
20260508211604 79 9 0.0 8.0 0.00 0.00 0.00 34 1017.2
20260508211104 79 353 2.0 9.0 0.00 0.00 0.00 34 1017.2
20260508211021 79 354 1.0 7.0 0.00 0.00 0.00 35 1017.2
20260508210104 79 5 1.0 6.0 0.00 0.00 0.00 31 1017.2
20260508205604 79 351 3.0 8.0 0.00 0.00 0.00 32 1017.2
20260508205106 78 12 4.0 8.0 0.00 0.00 0.00 33 1017.2
20260508205022 79 263 1.0 10.0 0.00 0.00 0.00 34 1017.2
20260508204604 79 263 1.0 10.0 0.00 0.00 0.00 34 1017.2
20260508204105 78 316 3.0 7.0 0.00 0.00 0.00 34 1017.2
20260508204020 78 332 1.0 10.0 0.00 0.00 0.00 32 1017.3
20260508203604 78 332 1.0 10.0 0.00 0.00 0.00 32 1017.3
20260508203025 77 68 2.0 5.0 0.00 0.00 0.00 36 1017.3
20260508202604 77 68 2.0 5.0 0.00 0.00 0.00 36 1017.3
20260508202104 78 12 2.0 6.0 0.00 0.00 0.00 35 1017.4
20260508201604 77 338 2.0 9.0 0.00 0.00 0.00 33 1017.4
20260508201106 76 31 1.0 5.0 0.00 0.00 0.00 34 1017.4
20260508201021 77 352 5.0 8.0 0.00 0.00 0.00 34 1017.5
20260508200604 77 352 5.0 8.0 0.00 0.00 0.00 34 1017.5
20260508200104 77 345 1.0 6.0 0.00 0.00 0.00 36 1017.5
20260508200025 77 41 1.0 7.0 0.00 0.00 0.00 33 1017.5
20260508195104 77 63 3.0 8.0 0.00 0.00 0.00 32 1017.6
20260508195021 75 50 1.0 5.0 0.00 0.00 0.00 35 1017.6
20260508194604 75 50 1.0 5.0 0.00 0.00 0.00 35 1017.6
20260508194104 75 356 0.0 7.0 0.00 0.00 0.00 35 1017.7
20260508194021 76 6 2.0 6.0 0.00 0.00 0.00 36 1017.8
20260508193104 76 28 0.0 5.0 0.00 0.00 0.00 38 1017.8
20260508193023 75 349 2.0 6.0 0.00 0.00 0.00 37 1017.9
20260508192606 75 349 2.0 6.0 0.00 0.00 0.00 37 1017.9
20260508192104 75 310 0.0 5.0 0.00 0.00 0.00 37 1017.9
20260508192020 74 1 0.0 0.0 0.00 0.00 0.00 37 1017.9
20260508191104 74 0 2.0 6.0 0.00 0.00 0.00 35 1018.0
20260508191022 73 349 1.0 7.0 0.00 0.00 0.00 38 1018.0
20260508190104 74 355 3.0 6.0 0.00 0.00 0.00 38 1018.2
20260508190025 74 49 1.0 6.0 0.00 0.00 0.00 40 1018.1
20260508185604 74 49 1.0 6.0 0.00 0.00 0.00 40 1018.1
20260508185104 73 36 2.0 6.0 0.00 0.00 0.00 37 1018.1
20260508185021 73 17 2.0 3.0 0.00 0.00 0.00 38 1018.2
20260508184104 71 21 0.0 5.0 0.00 0.00 0.00 45 1018.3
20260508184020 71 41 0.0 3.0 0.00 0.00 0.00 41 1018.3
20260508183604 71 41 0.0 3.0 0.00 0.00 0.00 41 1018.3
20260508183104 71 42 1.0 3.0 0.00 0.00 0.00 40 1018.3
20260508183024 72 56 2.0 5.0 0.00 0.00 0.00 42 1018.3
20260508182605 72 56 2.0 5.0 0.00 0.00 0.00 42 1018.3
20260508182104 71 39 2.0 6.0 0.00 0.00 0.00 45 1018.4
20260508182022 70 21 0.0 2.0 0.00 0.00 0.00 47 1018.5
20260508181604 70 21 0.0 2.0 0.00 0.00 0.00 47 1018.5
20260508181105 70 300 1.0 3.0 0.00 0.00 0.00 47 1018.5
20260508180605 70 9 3.0 5.0 0.00 0.00 0.00 44 1018.6
20260508180105 69 99 1.0 3.0 0.00 0.00 0.00 45 1018.6
20260508180022 68 49 0.0 3.0 0.00 0.00 0.00 45 1018.6
20260508175606 68 49 0.0 3.0 0.00 0.00 0.00 45 1018.6
20260508175104 69 53 1.0 3.0 0.00 0.00 0.00 44 1018.6
20260508175020 67 47 2.0 5.0 0.00 0.00 0.00 47 1018.6
20260508174604 67 47 2.0 5.0 0.00 0.00 0.00 47 1018.6
20260508173605 65 282 0.0 0.0 0.00 0.00 0.00 54 1018.6
20260508173106 65 294 0.0 0.0 0.00 0.00 0.00 57 1018.7
20260508173022 64 355 0.0 0.0 0.00 0.00 0.00 54 1018.7
20260508172020 64 355 0.0 0.0 0.00 0.00 0.00 55 1018.7
20260508171604 64 355 0.0 0.0 0.00 0.00 0.00 55 1018.7
20260508171104 65 355 0.0 0.0 0.00 0.00 0.00 56 1018.6
20260508171022 64 355 0.0 0.0 0.00 0.00 0.00 57 1018.6
20260508170604 64 355 0.0 0.0 0.00 0.00 0.00 57 1018.6
20260508170105 65 350 0.0 0.0 0.00 0.00 0.00 56 1018.5
20260508170022 65 355 0.0 0.0 0.00 0.00 0.00 53 1018.6
20260508165604 65 355 0.0 0.0 0.00 0.00 0.00 53 1018.6
20260508165104 66 355 0.0 3.0 0.00 0.00 0.00 52 1018.6
20260508165022 66 355 0.0 3.0 0.00 0.00 0.00 56 1018.7
20260508164104 65 355 0.0 0.0 0.00 0.00 0.00 57 1018.6
20260508164021 65 351 0.0 0.0 0.00 0.00 0.00 57 1018.7
20260508163605 65 351 0.0 0.0 0.00 0.00 0.00 57 1018.7
20260508163105 64 351 0.0 0.0 0.00 0.00 0.00 56 1018.7
20260508163023 64 348 0.0 0.0 0.00 0.00 0.00 58 1018.8
20260508162604 64 348 0.0 0.0 0.00 0.00 0.00 58 1018.8
20260508162104 64 348 0.0 0.0 0.00 0.00 0.00 60 1018.8
20260508162020 63 348 0.0 0.0 0.00 0.00 0.00 59 1018.8
20260508161104 63 350 0.0 0.0 0.00 0.00 0.00 62 1019.0
20260508161021 62 355 0.0 0.0 0.00 0.00 0.00 61 1018.9
20260508160606 62 355 0.0 0.0 0.00 0.00 0.00 61 1018.9
20260508160104 62 355 0.0 3.0 0.00 0.00 0.00 60 1018.9
20260508160022 62 355 0.0 2.0 0.00 0.00 0.00 61 1019.0
20260508155606 62 355 0.0 2.0 0.00 0.00 0.00 61 1019.0
20260508155105 61 355 0.0 0.0 0.00 0.00 0.00 62 1018.9
20260508155020 61 355 0.0 0.0 0.00 0.00 0.00 62 1018.9
20260508154105 61 344 0.0 0.0 0.00 0.00 0.00 63 1019.1
20260508154021 60 342 0.0 1.0 0.00 0.00 0.00 64 1019.0
20260508153605 60 342 0.0 1.0 0.00 0.00 0.00 64 1019.0
20260508152021 58 334 0.0 0.0 0.00 0.00 0.00 69 1018.9
20260508151604 58 334 0.0 0.0 0.00 0.00 0.00 69 1018.9
20260508151104 57 334 0.0 0.0 0.00 0.00 0.00 69 1018.9
20260508151020 56 334 0.0 0.0 0.00 0.00 0.00 70 1018.8
20260508150605 56 334 0.0 0.0 0.00 0.00 0.00 70 1018.8
20260508150104 56 332 0.0 0.0 0.00 0.00 0.00 73 1018.8
20260508150022 54 332 0.0 0.0 0.00 0.00 0.00 75 1018.7
20260508145104 53 332 0.0 0.0 0.00 0.00 0.00 78 1018.6
20260508145020 52 332 0.0 0.0 0.00 0.00 0.00 79 1018.6
20260508144606 52 332 0.0 0.0 0.00 0.00 0.00 79 1018.6
20260508144021 51 332 0.0 0.0 0.00 0.00 0.00 82 1018.5
20260508143604 51 332 0.0 0.0 0.00 0.00 0.00 82 1018.5
20260508143104 50 332 0.0 0.0 0.00 0.00 0.00 84 1018.5
20260508142606 49 332 0.0 0.0 0.00 0.00 0.00 85 1018.5
20260508142104 48 332 0.0 0.0 0.00 0.00 0.00 84 1018.4
20260508142021 48 332 0.0 0.0 0.00 0.00 0.00 84 1018.4
20260508141604 48 332 0.0 0.0 0.00 0.00 0.00 84 1018.4
20260508141104 48 332 0.0 0.0 0.00 0.00 0.00 83 1018.2
20260508141021 47 332 0.0 0.0 0.00 0.00 0.00 83 1018.2
20260508140604 47 332 0.0 0.0 0.00 0.00 0.00 83 1018.2
20260508140106 48 332 0.0 0.0 0.00 0.00 0.00 83 1018.1
20260508140023 48 332 0.0 0.0 0.00 0.00 0.00 83 1018.1
20260508135604 48 332 0.0 0.0 0.00 0.00 0.00 83 1018.1
20260508135021 48 332 0.0 0.0 0.00 0.00 0.00 82 1017.9
20260508134605 48 332 0.0 0.0 0.00 0.00 0.00 82 1017.9
20260508134106 48 332 0.0 0.0 0.00 0.00 0.00 81 1017.9
20260508134022 48 332 0.0 0.0 0.00 0.00 0.00 81 1017.9
20260508133605 48 332 0.0 0.0 0.00 0.00 0.00 81 1017.9
20260508133104 48 332 0.0 0.0 0.00 0.00 0.00 81 1017.9
20260508133022 48 332 0.0 0.0 0.00 0.00 0.00 81 1017.7
20260508132606 48 332 0.0 0.0 0.00 0.00 0.00 81 1017.7
20260508132104 48 332 0.0 0.0 0.00 0.00 0.00 81 1017.7
20260508132021 48 332 0.0 0.0 0.00 0.00 0.00 81 1017.7
20260508131605 48 332 0.0 0.0 0.00 0.00 0.00 81 1017.7
20260508131021 48 332 0.0 0.0 0.00 0.00 0.00 81 1017.7
20260508130606 48 332 0.0 0.0 0.00 0.00 0.00 81 1017.7
20260508130104 48 332 0.0 0.0 0.00 0.00 0.00 81 1017.7
20260508130022 48 332 0.0 0.0 0.00 0.00 0.00 81 1017.6
20260508125605 48 332 0.0 0.0 0.00 0.00 0.00 81 1017.6
20260508125104 48 332 0.0 0.0 0.00 0.00 0.00 81 1017.6
20260508125020 48 332 0.0 0.0 0.00 0.00 0.00 81 1017.6
20260508124606 48 332 0.0 0.0 0.00 0.00 0.00 81 1017.6
20260508124104 48 332 0.0 0.0 0.00 0.00 0.00 81 1017.5
20260508124020 48 332 0.0 0.0 0.00 0.00 0.00 80 1017.5
20260508123604 48 332 0.0 0.0 0.00 0.00 0.00 80 1017.5
20260508123104 48 332 0.0 0.0 0.00 0.00 0.00 80 1017.4
20260508123022 48 332 0.0 0.0 0.00 0.00 0.00 80 1017.3
20260508122604 48 332 0.0 0.0 0.00 0.00 0.00 80 1017.3
20260508122104 48 332 0.0 0.0 0.00 0.00 0.00 80 1017.3
20260508122021 48 332 0.0 0.0 0.00 0.00 0.00 80 1017.1
20260508121604 48 332 0.0 0.0 0.00 0.00 0.00 80 1017.1
20260508121104 48 332 0.0 0.0 0.00 0.00 0.00 80 1017.1
20260508121022 48 332 0.0 0.0 0.00 0.00 0.00 80 1017.2
20260508120604 48 332 0.0 0.0 0.00 0.00 0.00 80 1017.2
20260508120104 48 332 0.0 0.0 0.00 0.00 0.00 80 1017.0
20260508120020 48 332 0.0 0.0 0.00 0.00 0.00 80 1017.0
20260508115605 48 332 0.0 0.0 0.00 0.00 0.00 80 1017.0
20260508115104 49 332 0.0 0.0 0.00 0.00 0.00 80 1016.9
20260508115020 49 332 0.0 0.0 0.00 0.00 0.00 79 1017.0
20260508114606 49 332 0.0 0.0 0.00 0.00 0.00 79 1017.0
20260508114104 49 332 0.0 0.0 0.00 0.00 0.00 79 1017.0
20260508114021 49 332 0.0 0.0 0.00 0.00 0.00 79 1016.9
20260508113606 49 332 0.0 0.0 0.00 0.00 0.00 79 1016.9
20260508113105 49 332 0.0 0.0 0.00 0.00 0.00 79 1017.0
20260508113021 49 332 0.0 0.0 0.00 0.00 0.00 78 1016.8
20260508112605 49 332 0.0 0.0 0.00 0.00 0.00 78 1016.8
20260508112104 49 332 0.0 0.0 0.00 0.00 0.00 78 1016.7
20260508112020 49 332 0.0 0.0 0.00 0.00 0.00 78 1016.7
20260508111604 49 332 0.0 0.0 0.00 0.00 0.00 78 1016.7
20260508111103 49 332 0.0 0.0 0.00 0.00 0.00 77 1016.8
20260508111021 50 332 0.0 0.0 0.00 0.00 0.00 77 1016.7
20260508110106 50 332 0.0 0.0 0.00 0.00 0.00 77 1016.7
20260508110020 50 332 0.0 0.0 0.00 0.00 0.00 76 1016.7
20260508105020 50 332 0.0 0.0 0.00 0.00 0.00 76 1016.7
20260508104604 50 332 0.0 0.0 0.00 0.00 0.00 76 1016.7
20260508104104 50 332 0.0 0.0 0.00 0.00 0.00 76 1016.7
20260508104021 50 332 0.0 0.0 0.00 0.00 0.00 75 1016.6
20260508103105 51 332 0.0 0.0 0.00 0.00 0.00 75 1016.6
20260508103021 51 332 0.0 0.0 0.00 0.00 0.00 75 1016.6
20260508102604 51 332 0.0 0.0 0.00 0.00 0.00 75 1016.6
20260508102104 51 332 0.0 0.0 0.00 0.00 0.00 74 1016.6
20260508102020 51 332 0.0 0.0 0.00 0.00 0.00 74 1016.6
20260508101604 51 332 0.0 0.0 0.00 0.00 0.00 74 1016.6
20260508101105 51 332 0.0 0.0 0.00 0.00 0.00 74 1016.6
20260508101020 52 332 0.0 0.0 0.00 0.00 0.00 73 1016.5
20260508100603 52 332 0.0 0.0 0.00 0.00 0.00 73 1016.5
20260508100106 52 332 0.0 0.0 0.00 0.00 0.00 73 1016.5
20260508100021 52 332 0.0 0.0 0.00 0.00 0.00 72 1016.5
20260508095604 52 332 0.0 0.0 0.00 0.00 0.00 72 1016.5
20260508095106 52 332 0.0 0.0 0.00 0.00 0.00 72 1016.4
20260508094604 52 332 0.0 0.0 0.00 0.00 0.00 72 1016.4
20260508094104 52 332 0.0 0.0 0.00 0.00 0.00 71 1016.3
20260508094021 53 332 0.0 0.0 0.00 0.00 0.00 71 1016.4
20260508093605 53 332 0.0 0.0 0.00 0.00 0.00 71 1016.4
20260508093104 53 332 0.0 0.0 0.00 0.00 0.00 70 1016.4
20260508092104 53 332 0.0 0.0 0.00 0.00 0.00 69 1016.1
20260508092022 54 332 0.0 0.0 0.00 0.00 0.00 69 1016.1
20260508091604 54 332 0.0 0.0 0.00 0.00 0.00 69 1016.1
20260508091105 54 332 0.0 0.0 0.00 0.00 0.00 69 1016.0
20260508091021 54 332 0.0 0.0 0.00 0.00 0.00 68 1015.9
20260508090604 54 332 0.0 0.0 0.00 0.00 0.00 68 1015.9
20260508090104 54 332 0.0 0.0 0.00 0.00 0.00 67 1015.9
20260508090020 55 332 0.0 0.0 0.00 0.00 0.00 66 1015.9
20260508085605 55 332 0.0 0.0 0.00 0.00 0.00 66 1015.9
20260508085104 55 332 0.0 0.0 0.00 0.00 0.00 65 1015.8
20260508085020 55 332 0.0 0.0 0.00 0.00 0.00 65 1015.9
20260508084105 56 332 0.0 0.0 0.00 0.00 0.00 65 1015.9
20260508084021 56 332 0.0 0.0 0.00 0.00 0.00 64 1015.9
20260508083604 56 332 0.0 0.0 0.00 0.00 0.00 64 1015.9
20260508082604 57 332 0.0 0.0 0.00 0.00 0.00 63 1015.9
20260508082106 57 332 0.0 0.0 0.00 0.00 0.00 63 1015.8
20260508082020 57 332 0.0 0.0 0.00 0.00 0.00 62 1015.8
20260508081020 58 332 0.0 0.0 0.00 0.00 0.00 60 1016.1
20260508080605 58 332 0.0 0.0 0.00 0.00 0.00 60 1016.1
20260508080020 58 332 0.0 0.0 0.00 0.00 0.00 58 1015.9
20260508075604 58 332 0.0 0.0 0.00 0.00 0.00 58 1015.9
20260508075104 58 332 0.0 0.0 0.00 0.00 0.00 58 1015.9
20260508075021 58 332 0.0 0.0 0.00 0.00 0.00 59 1015.9
20260508074605 58 332 0.0 0.0 0.00 0.00 0.00 59 1015.9
20260508074105 59 332 0.0 0.0 0.00 0.00 0.00 58 1015.9
20260508073604 59 332 0.0 0.0 0.00 0.00 0.00 57 1015.9
20260508073104 59 331 0.0 0.0 0.00 0.00 0.00 56 1015.9
20260508073022 59 331 0.0 0.0 0.00 0.00 0.00 56 1015.9
20260508072606 59 331 0.0 0.0 0.00 0.00 0.00 56 1015.9
20260508072104 59 331 0.0 0.0 0.00 0.00 0.00 54 1016.0
20260508072020 59 331 0.0 0.0 0.00 0.00 0.00 54 1015.9
20260508071604 59 331 0.0 0.0 0.00 0.00 0.00 54 1015.9
20260508071104 60 331 0.0 0.0 0.00 0.00 0.00 53 1015.9
20260508071020 60 331 0.0 0.0 0.00 0.00 0.00 54 1015.9
20260508070604 60 331 0.0 0.0 0.00 0.00 0.00 54 1015.9
20260508070104 60 331 0.0 0.0 0.00 0.00 0.00 54 1015.9
20260508070020 60 331 0.0 0.0 0.00 0.00 0.00 53 1015.8
20260508065605 60 331 0.0 0.0 0.00 0.00 0.00 53 1015.8
20260508065021 61 331 0.0 0.0 0.00 0.00 0.00 52 1015.8
20260508064604 61 331 0.0 0.0 0.00 0.00 0.00 52 1015.8
20260508064021 61 331 0.0 0.0 0.00 0.00 0.00 52 1015.7
20260508063104 61 331 0.0 0.0 0.00 0.00 0.00 52 1015.7
20260508063021 62 331 0.0 0.0 0.00 0.00 0.00 52 1015.6
20260508062604 62 331 0.0 0.0 0.00 0.00 0.00 52 1015.6
20260508062107 62 331 0.0 0.0 0.00 0.00 0.00 51 1015.7
20260508061605 62 331 0.0 0.0 0.00 0.00 0.00 50 1015.6
20260508061104 62 331 0.0 0.0 0.00 0.00 0.00 50 1015.6
20260508060104 63 331 0.0 0.0 0.00 0.00 0.00 51 1015.5
20260508060022 63 331 0.0 0.0 0.00 0.00 0.00 50 1015.4
20260508055606 63 331 0.0 0.0 0.00 0.00 0.00 50 1015.4
20260508055104 63 331 0.0 0.0 0.00 0.00 0.00 50 1015.3
20260508055020 64 331 0.0 0.0 0.00 0.00 0.00 50 1015.3
20260508054606 64 331 0.0 0.0 0.00 0.00 0.00 50 1015.3
20260508054104 64 333 0.0 0.0 0.00 0.00 0.00 50 1015.2
20260508053605 64 333 0.0 0.0 0.00 0.00 0.00 51 1015.3
20260508053021 65 333 0.0 0.0 0.00 0.00 0.00 48 1015.1
20260508052104 65 333 0.0 0.0 0.00 0.00 0.00 49 1015.1
20260508052020 66 333 0.0 0.0 0.00 0.00 0.00 49 1015.1
20260508051605 66 333 0.0 0.0 0.00 0.00 0.00 49 1015.1
20260508051103 66 333 0.0 0.0 0.00 0.00 0.00 48 1015.1
20260508051020 67 333 0.0 0.0 0.00 0.00 0.00 49 1014.9
20260508050606 67 333 0.0 0.0 0.00 0.00 0.00 49 1014.9
20260508050104 67 333 0.0 0.0 0.00 0.00 0.00 47 1014.9
20260508050020 68 338 0.0 0.0 0.00 0.00 0.00 48 1014.8
20260508045604 68 338 0.0 0.0 0.00 0.00 0.00 48 1014.8
20260508045104 68 338 0.0 0.0 0.00 0.00 0.00 47 1014.8
20260508044605 69 338 0.0 0.0 0.00 0.00 0.00 48 1014.8
20260508044020 70 338 0.0 0.0 0.00 0.00 0.00 48 1014.6
20260508043604 70 338 0.0 0.0 0.00 0.00 0.00 48 1014.6
20260508043105 70 344 0.0 0.0 0.00 0.00 0.00 50 1014.5
20260508042020 71 343 0.0 0.0 0.00 0.00 0.00 49 1014.2
20260508041605 71 343 0.0 0.0 0.00 0.00 0.00 49 1014.2
20260508041104 71 344 0.0 0.0 0.00 0.00 0.00 51 1014.2
20260508040605 71 345 0.0 0.0 0.00 0.00 0.00 50 1014.0
20260508040022 72 345 0.0 0.0 0.00 0.00 0.00 48 1013.9
20260508035604 72 345 0.0 0.0 0.00 0.00 0.00 48 1013.9
20260508035104 73 350 0.0 0.0 0.00 0.00 0.00 47 1013.7
20260508035020 73 349 0.0 3.0 0.00 0.00 0.00 46 1013.5
20260508034605 73 349 0.0 3.0 0.00 0.00 0.00 46 1013.5
20260508034103 73 5 1.0 3.0 0.00 0.00 0.00 45 1013.5
20260508034021 73 5 1.0 3.0 0.00 0.00 0.00 43 1013.3
20260508033604 73 5 1.0 3.0 0.00 0.00 0.00 43 1013.3
20260508033103 73 252 0.0 0.0 0.00 0.00 0.00 39 1013.3
20260508033021 73 250 0.0 0.0 0.00 0.00 0.00 38 1013.3
20260508032604 73 250 0.0 0.0 0.00 0.00 0.00 38 1013.3
20260508032104 74 250 0.0 0.0 0.00 0.00 0.00 37 1013.1
20260508032021 74 249 0.0 0.0 0.00 0.00 0.00 39 1013.1
20260508031104 75 249 0.0 0.0 0.00 0.00 0.00 38 1013.0
20260508031021 76 249 0.0 0.0 0.00 0.00 0.00 37 1012.8
20260508030604 76 249 0.0 0.0 0.00 0.00 0.00 37 1012.8
20260508030104 76 249 0.0 3.0 0.00 0.00 0.00 34 1012.8
20260508025604 76 242 0.0 2.0 0.00 0.00 0.00 34 1012.7
20260508025106 77 259 1.0 6.0 0.00 0.00 0.00 34 1012.6
20260508025021 77 239 0.0 0.0 0.00 0.00 0.00 34 1012.5
20260508024604 77 239 0.0 0.0 0.00 0.00 0.00 34 1012.5
20260508024105 78 244 0.0 2.0 0.00 0.00 0.00 35 1012.5
20260508024020 78 251 0.0 0.0 0.00 0.00 0.00 34 1012.4
20260508023604 78 251 0.0 0.0 0.00 0.00 0.00 34 1012.4
20260508023022 79 214 0.0 2.0 0.00 0.00 0.00 36 1012.5
20260508022606 79 214 0.0 2.0 0.00 0.00 0.00 36 1012.5
20260508022104 79 219 0.0 3.0 0.00 0.00 0.00 35 1012.4
20260508022021 80 239 0.0 3.0 0.00 0.00 0.00 36 1012.4
20260508021605 80 239 0.0 3.0 0.00 0.00 0.00 36 1012.4
20260508021104 80 300 1.0 7.0 0.00 0.00 0.00 34 1012.3
20260508021021 80 240 0.0 2.0 0.00 0.00 0.00 35 1012.4
20260508020605 80 240 0.0 2.0 0.00 0.00 0.00 35 1012.4
20260508020023 81 320 0.0 3.0 0.00 0.00 0.00 33 1012.1
20260508015606 81 320 0.0 3.0 0.00 0.00 0.00 33 1012.1
20260508015103 81 311 2.0 9.0 0.00 0.00 0.00 32 1012.2
20260508014603 81 1 3.0 6.0 0.00 0.00 0.00 33 1012.2
20260508014021 81 3 2.0 8.0 0.00 0.00 0.00 32 1012.3
20260508013604 81 3 2.0 8.0 0.00 0.00 0.00 32 1012.3
20260508013106 82 343 3.0 9.0 0.00 0.00 0.00 32 1012.3
20260508012604 82 358 4.0 8.0 0.00 0.00 0.00 32 1012.4
20260508012106 82 357 3.0 9.0 0.00 0.00 0.00 31 1012.4
20260508011604 82 338 3.0 8.0 0.00 0.00 0.00 31 1012.5
20260508011105 82 337 3.0 8.0 0.00 0.00 0.00 32 1012.6
20260508011021 83 359 5.0 10.0 0.00 0.00 0.00 31 1012.7
20260508010106 83 338 3.0 12.0 0.00 0.00 0.00 31 1012.7
20260508005606 83 339 5.0 12.0 0.00 0.00 0.00 30 1012.7
20260508005104 83 0 5.0 12.0 0.00 0.00 0.00 31 1012.8
20260508005020 83 341 3.0 10.0 0.00 0.00 0.00 31 1012.8
20260508004604 83 341 3.0 10.0 0.00 0.00 0.00 31 1012.8
20260508004103 84 346 5.0 9.0 0.00 0.00 0.00 31 1012.7
20260508004022 84 328 4.0 10.0 0.00 0.00 0.00 30 1012.8
20260508003604 84 328 4.0 10.0 0.00 0.00 0.00 30 1012.8
20260508003105 84 352 5.0 13.0 0.00 0.00 0.00 30 1012.7
20260508002604 84 342 5.0 10.0 0.00 0.00 0.00 29 1012.8
20260508002103 84 357 5.0 12.0 0.00 0.00 0.00 29 1012.7
20260508002021 84 345 7.0 12.0 0.00 0.00 0.00 29 1012.8
20260508001605 84 345 7.0 12.0 0.00 0.00 0.00 29 1012.8
20260508001104 84 2 3.0 13.0 0.00 0.00 0.00 28 1012.8